Theta_e
326 326 325 325 327 328 329 330 329 329 329 328 326 326 327 326 321 311 303 308 314 325 321 309 308 307 308 305 308 305 295 290 293 294 294 296 295 296 298 300 302 306 313 316 323
325 325 325 325 326 327 328 329 329 328 326 326 327 326 326 323 313 307 318 326 327 327 306 305 303 306 303 302 303 302 295 294 297 298 295 297 296 297 298 299 304 308 314 321 326
323 324 324 325 326 326 327 328 327 326 325 326 326 325 324 320 311 310 325 328 326 321 307 306 306 305 301 301 300 299 294 299 298 299 298 298 296 297 297 294 303 309 313 318 323
322 323 323 324 325 325 327 327 327 325 324 324 324 322 322 313 301 314 327 328 328 315 307 306 303 300 300 298 301 295 299 299 298 299 297 297 298 295 297 298 300 314 320 319 320
321 321 322 323 323 324 326 326 326 325 323 324 322 321 311 305 306 313 327 328 322 310 303 303 301 300 296 299 299 297 298 298 297 298 297 298 296 295 296 295 308 317 319 319 319
320 320 321 321 322 324 325 325 325 324 323 324 322 320 307 301 313 312 313 321 316 309 302 302 302 303 299 298 298 299 298 298 296 297 297 296 294 296 296 298 313 316 316 319 320
320 319 320 321 322 323 324 324 324 324 323 324 322 312 301 303 308 311 317 318 317 313 306 304 303 303 302 300 301 300 297 298 295 296 296 296 292 293 294 300 311 313 315 317 318
319 319 319 320 321 322 323 323 323 323 322 323 321 306 299 309 307 311 313 314 316 312 311 309 307 302 302 302 299 299 296 293 296 295 296 295 289 296 295 301 307 310 310 314 316
317 318 319 320 320 321 322 322 322 323 323 323 310 300 295 309 302 308 309 308 311 308 307 310 306 298 298 294 291 295 293 292 291 294 293 292 290 295 295 298 299 305 309 311 313
312 318 318 319 320 320 321 322 322 322 320 314 311 295 298 296 302 307 305 309 306 305 304 302 299 293 292 291 287 286 292 288 291 291 290 289 290 291 293 293 297 299 303 306 308
311 314 318 319 320 320 319 315 308 306 306 298 300 296 296 300 304 302 304 301 304 300 296 297 293 288 291 291 289 288 289 289 290 293 290 289 290 294 291 290 291 293 295 297 300
312 312 317 318 319 319 316 307 306 307 296 301 301 301 300 300 295 301 303 295 295 291 294 292 290 294 296 293 291 288 286 288 289 291 290 288 289 291 290 291 293 294 292 294 293
310 313 314 317 318 315 310 304 310 306 294 295 300 300 298 298 294 296 300 294 293 289 290 288 289 295 294 291 290 287 286 285 288 289 288 285 286 287 290 291 291 292 292 293 294
310 312 313 317 312 312 307 307 308 301 286 289 293 297 298 297 292 300 300 296 290 290 290 289 293 292 291 290 291 286 290 289 288 286 283 286 281 284 287 289 290 293 291 292 292
308 311 314 317 311 307 307 308 307 298 275 289 292 301 299 292 293 295 298 294 289 288 288 287 288 288 288 290 292 288 291 289 288 285 283 281 278 287 282 285 289 291 293 293 293
307 309 315 314 312 311 308 308 302 284 274 285 291 290 291 291 291 293 294 294 294 289 287 288 289 292 290 291 291 291 289 287 286 284 278 282 281 280 282 285 287 291 293 294 291
306 307 311 315 306 311 310 302 284 275 286 283 286 290 289 286 288 289 290 287 285 281 282 284 285 287 289 287 288 289 286 279 277 277 278 278 277 286 285 287 288 289 289 290 292
305 306 309 314 314 310 306 291 273 283 283 288 288 289 285 287 286 287 288 286 287 284 281 282 279 286 288 288 285 286 285 277 273 274 276 279 277 283 288 287 288 290 288 291 292
304 304 307 312 313 309 297 282 281 284 287 286 288 284 282 287 286 285 287 287 289 285 282 281 281 285 287 287 289 283 282 286 279 274 276 278 280 286 287 288 288 289 290 291 292
297 298 304 313 312 304 292 285 284 289 289 290 282 285 281 284 283 284 285 290 289 288 287 284 280 285 286 287 288 286 288 281 281 275 272 277 277 280 283 288 288 288 290 291 293
296 293 304 312 310 297 285 286 287 290 292 287 284 283 284 284 284 283 284 286 292 288 287 287 285 283 287 285 283 283 282 282 284 282 277 273 278 284 287 289 289 291 291 292 293
290 285 299 309 293 291 286 290 293 289 290 289 289 286 285 286 282 284 283 286 294 291 286 288 285 280 283 286 286 285 285 287 282 278 278 279 279 285 286 288 289 290 291 291 292
285 285 297 296 286 286 291 290 291 289 289 288 287 288 288 287 282 283 285 290 293 291 288 289 284 277 281 284 285 283 284 285 284 282 280 280 282 286 288 288 288 291 291 292 292
285 284 288 291 292 289 288 288 288 293 291 290 288 289 288 286 287 284 285 291 291 292 295 294 285 283 279 281 284 281 282 283 284 280 281 282 282 285 287 288 288 289 292 292 292
286 284 284 284 287 289 291 289 287 287 290 291 287 288 286 283 284 284 287 289 291 294 292 290 282 283 284 285 286 285 285 285 283 286 282 285 283 288 288 288 289 289 291 291 291
285 283 285 284 288 290 290 287 287 287 289 287 286 287 287 284 286 283 287 287 286 288 289 288 278 282 280 285 285 283 285 287 287 287 286 283 283 287 288 291 290 291 292 292 293
290 288 284 285 286 287 287 288 288 290 289 291 290 289 286 287 290 292 292 291 291 289 288 287 280 278 278 283 283 280 283 284 286 288 287 282 288 287 288 290 291 291 293 293 294
Wind_Speed
28 26 26 24 23 21 20 19 20 19 18 15 12 12 10 9 7 2 4 6 4 9 4 6 4 3 3 4 4 2 4 2 5 4 4 3 4 3 2 6 2 2 6 5 16
28 26 27 24 23 20 21 22 20 20 20 18 14 13 14 11 3 7 7 3 5 9 6 8 4 3 3 2 2 6 3 4 3 3 3 5 4 7 4 4 1 1 3 14 17
27 25 26 25 23 22 24 23 20 20 20 18 15 15 16 9 5 9 11 9 4 3 4 4 6 3 3 3 2 5 4 4 5 7 3 3 3 5 8 4 7 9 9 14 15
26 25 24 25 25 23 24 24 22 21 20 18 16 13 16 7 12 6 17 15 7 1 5 7 5 4 6 6 4 6 5 6 8 4 2 4 5 5 7 7 7 11 21 17 16
23 24 24 25 24 23 25 24 23 21 21 18 16 14 7 5 6 5 14 15 6 3 6 6 6 5 7 6 6 5 4 3 4 10 5 2 5 5 8 2 6 10 12 20 16
23 24 21 24 25 24 25 24 23 22 23 19 16 10 5 9 5 4 6 10 8 4 4 3 7 5 5 6 8 6 4 3 4 6 6 4 3 5 6 5 8 12 13 14 18
22 23 20 22 24 25 27 26 23 20 23 20 15 4 3 10 1 2 9 11 15 8 4 2 4 3 5 2 3 3 2 6 4 1 5 4 4 7 2 6 11 10 10 9 11
17 23 21 21 23 24 27 26 23 21 23 20 15 3 5 3 1 4 5 6 7 5 3 5 5 4 5 4 3 4 3 8 2 4 4 7 8 9 6 9 11 10 8 8 10
5 21 23 22 22 24 25 27 23 22 22 19 5 5 6 1 4 4 6 9 13 6 3 4 5 1 4 11 3 4 6 11 6 6 2 4 6 7 7 8 10 9 9 10 8
10 18 23 22 23 25 26 24 19 22 16 9 6 3 3 6 4 7 2 10 7 10 5 2 3 2 3 10 13 7 11 5 15 6 4 4 8 5 6 8 12 11 9 9 9
7 4 23 24 25 29 26 15 9 9 7 5 9 3 4 3 4 3 5 7 8 8 11 5 7 22 16 3 3 7 9 11 9 11 5 8 8 14 4 4 6 9 9 9 13
9 3 14 25 27 31 19 11 10 8 11 4 3 3 1 3 6 7 8 8 8 15 7 6 24 9 5 3 7 5 7 17 3 3 6 4 12 10 5 7 11 14 10 13 7
9 9 10 25 27 21 17 7 12 12 6 2 4 10 4 3 3 11 11 4 12 13 17 11 2 12 15 6 10 6 7 4 5 3 2 3 7 7 6 5 4 7 8 7 12
11 11 17 22 21 17 14 11 15 2 5 5 5 5 4 6 3 6 9 9 5 16 11 6 13 20 11 15 11 12 3 4 4 3 4 5 9 6 7 9 9 12 9 12 10
8 10 22 22 13 16 13 14 7 4 6 10 7 3 8 8 10 8 3 4 11 7 9 12 11 10 17 16 13 6 8 6 1 3 2 2 1 10 1 11 13 13 14 15 12
6 8 20 14 7 16 14 12 5 5 9 8 10 12 9 5 1 6 6 2 7 7 2 8 4 13 13 8 11 8 5 6 4 3 5 9 9 7 8 8 7 16 15 16 10
6 9 11 14 9 17 16 12 5 9 6 9 10 16 13 7 4 7 16 7 8 9 9 4 5 1 4 7 4 8 10 3 3 4 12 4 5 14 5 8 6 7 11 9 9
5 9 12 11 13 19 12 12 5 14 9 5 9 20 17 9 4 6 18 15 8 6 7 12 9 11 5 8 10 12 9 6 10 7 4 2 8 10 8 4 8 6 4 7 7
5 3 7 7 18 15 16 14 15 13 10 11 15 20 7 9 10 7 17 24 17 10 11 10 8 2 5 2 10 7 10 6 7 4 4 5 7 10 6 8 3 6 7 9 8
1 3 11 16 19 19 13 15 5 7 13 19 11 16 18 24 9 15 20 19 17 13 3 6 5 3 3 2 1 8 10 5 1 6 5 5 5 7 5 10 8 8 12 9 7
2 2 8 19 12 15 14 15 4 5 18 11 9 9 13 17 14 14 14 4 18 10 3 5 3 2 5 7 9 3 4 1 4 5 7 3 10 10 14 16 15 16 12 13 11
2 2 2 11 12 13 13 13 5 7 3 5 6 6 16 18 8 16 16 7 20 13 9 3 5 4 5 3 2 1 8 13 7 9 1 4 8 2 8 7 7 8 8 6 7
2 1 2 5 15 16 18 12 8 8 9 9 5 4 7 16 6 6 9 10 14 16 16 9 1 4 4 3 1 5 5 4 3 4 10 9 16 1 5 5 6 10 9 8 8
1 2 2 2 5 19 21 28 19 1 6 4 7 6 13 12 0 10 9 5 10 11 8 8 3 8 12 10 9 4 4 4 5 5 6 13 6 6 7 8 5 6 8 10 10
1 1 3 4 10 19 21 24 22 9 1 6 2 13 13 7 8 8 6 4 4 9 6 6 7 4 4 6 7 8 11 10 8 15 10 19 8 15 9 8 6 6 7 10 11
2 0 2 1 5 25 21 24 26 7 9 6 8 8 8 10 15 9 9 5 8 2 13 1 4 4 1 3 5 4 8 12 20 21 22 5 12 5 4 6 6 9 11 12 14
1 3 3 2 5 17 17 29 30 16 2 4 10 8 5 8 8 9 5 7 12 13 17 9 6 4 8 3 6 2 14 15 14 19 18 17 18 6 5 8 10 11 14 18 18
Wind_Direction
192 186 184 189 187 187 183 186 183 165 156 157 174 190 174 164 99 30 230 224 189 164 135 105 48 205 100 102 110 119 72 265 211 158 236 169 142 154 84 115 323 104 160 189 137
191 189 183 188 186 185 181 181 169 161 150 152 164 164 165 137 112 228 241 272 197 153 117 140 152 167 72 95 92 96 101 223 227 221 250 178 161 170 134 131 287 41 20 127 141
188 186 187 180 185 186 182 174 159 156 152 143 142 142 145 135 154 238 210 227 249 159 127 127 133 192 105 123 144 135 181 37 293 264 248 194 218 191 128 231 209 184 154 145 155
185 184 186 182 177 182 174 162 159 155 148 141 139 141 148 170 191 210 185 198 211 171 122 123 126 146 152 161 181 123 219 151 282 297 286 202 143 200 180 218 190 173 164 152 170
189 185 182 179 170 179 171 156 152 158 151 145 142 147 144 221 247 213 186 179 171 143 146 145 139 138 162 171 118 144 209 208 298 299 269 187 205 196 221 308 115 126 163 171 174
192 183 179 176 169 173 169 156 157 158 158 151 154 149 131 199 231 203 190 160 167 150 133 119 161 167 126 182 181 165 127 299 297 288 293 234 226 145 242 128 131 152 179 185 182
187 181 169 170 169 169 165 157 155 154 160 157 153 109 64 218 39 185 156 175 174 173 134 156 54 134 115 108 175 105 46 336 227 259 257 140 283 222 186 153 162 175 192 188 207
204 179 164 165 166 165 162 157 156 148 157 153 147 101 224 235 211 127 114 107 148 115 137 110 78 90 127 118 56 96 47 239 355 179 235 137 249 251 179 155 185 183 201 207 215
218 179 164 162 158 159 161 150 158 156 155 140 109 113 248 103 143 196 124 137 148 104 85 107 66 152 177 149 139 189 219 227 294 199 245 175 232 246 180 183 195 195 203 212 226
1 180 165 159 157 150 151 141 152 145 141 120 88 78 255 202 154 135 73 122 122 112 42 31 128 209 188 178 201 179 214 220 210 221 206 208 251 273 218 186 205 200 200 207 221
331 231 167 164 157 153 128 127 159 147 153 160 168 186 151 156 99 108 134 99 124 136 174 198 190 210 197 152 166 149 189 217 211 208 177 220 231 245 226 222 236 218 207 215 222
307 266 190 167 162 147 144 165 165 117 111 136 160 189 193 235 119 172 133 140 145 165 141 141 221 199 244 239 211 212 191 201 250 147 166 233 247 253 200 222 207 211 211 220 226
311 282 241 169 156 148 164 145 135 116 116 146 166 212 202 149 131 174 159 143 149 155 178 178 229 201 194 206 213 229 206 160 191 123 131 130 277 252 236 247 236 221 227 230 220
296 307 216 175 155 157 166 160 145 192 103 177 187 231 198 156 176 165 172 135 159 184 168 233 231 183 205 216 201 233 171 157 112 119 220 169 255 247 233 236 220 235 213 232 221
301 297 204 175 141 170 148 149 149 47 148 166 170 156 154 169 136 221 200 86 159 164 151 203 166 170 202 200 184 208 170 155 105 234 195 208 230 253 193 237 234 235 230 229 220
301 304 198 182 146 156 134 128 81 93 231 180 151 170 143 189 190 107 166 86 143 131 168 200 187 173 196 179 179 145 80 69 92 126 267 212 188 249 205 207 223 231 230 223 188
307 301 224 169 162 141 141 133 134 187 169 178 169 168 153 146 123 161 181 182 158 134 181 168 205 194 151 142 114 154 139 183 202 165 234 169 182 237 224 234 230 251 243 203 159
314 293 212 179 154 141 144 154 162 184 184 114 140 152 177 137 182 198 162 194 242 152 135 168 210 167 192 199 179 190 183 162 194 182 210 51 232 245 231 257 263 270 195 147 165
307 226 193 187 155 145 159 176 197 168 146 127 130 153 173 192 135 155 189 196 196 189 163 173 227 134 153 176 157 204 190 188 95 23 64 203 275 294 230 260 244 213 164 172 175
59 285 194 169 161 148 181 201 141 153 119 143 162 189 177 183 151 187 180 199 201 197 172 205 153 154 130 123 137 178 155 169 336 146 235 250 272 231 252 234 211 211 200 185 169
83 231 157 166 178 172 187 202 136 164 141 156 164 171 167 179 185 190 188 261 196 182 171 150 133 185 113 194 167 161 179 151 127 159 189 221 256 207 217 220 211 208 195 177 179
93 190 344 184 193 173 194 187 160 150 189 161 124 130 170 162 162 193 198 205 189 163 175 184 118 139 183 159 138 273 196 191 179 213 211 153 257 249 249 265 200 184 180 170 161
142 295 44 292 186 186 177 208 191 151 184 164 138 167 129 168 160 161 170 204 175 174 177 181 203 91 35 18 91 212 207 211 112 62 201 208 244 329 290 276 221 180 175 168 154
176 198 265 261 217 182 180 188 176 22 161 151 129 118 139 173 176 172 169 182 176 193 157 109 140 173 200 216 119 195 193 190 169 175 194 231 262 267 252 247 229 203 172 160 157
136 201 263 197 177 183 174 176 166 166 167 169 126 166 154 148 162 162 146 127 78 152 152 145 191 146 334 149 164 173 184 184 188 223 195 240 204 239 239 219 210 176 153 162 175
215 72 9 262 213 182 180 183 179 157 145 185 145 171 157 155 187 160 131 174 169 78 180 191 218 131 64 73 132 165 221 209 208 221 231 245 250 228 104 116 169 177 177 189 194
174 107 92 280 204 190 187 178 186 150 351 135 151 123 135 181 149 158 142 128 158 162 185 194 127 110 228 124 107 284 201 203 219 216 216 213 232 167 206 211 199 182 191 201 203